Tracking 19709 objects as of 18-Jun-2019
HD Live streaming from Space Station
objects crossing your sky now

SL-8 DEB *

Track SL-8 DEB * now!
10-day predictions


NORAD ID: 18501
Int'l Code: 1978-019E
Perigee: 685.8 km
Apogee: 700.4 km
Inclination: 74.1 °
Period: 98.5 minutes
Semi major axis: 7064 km
RCS: 0.0081 m2 (small)
Launch date: February 17, 1978
Source: Commonwealth of Independent States (former USSR) (CIS)
Launch site: PLESETSK MISSILE AND SPACE COMPLEX (PKMTR)

Note: This is SATELLITE DEBRIS
aabbcc
Your satellite tracking list
Your tracking list is empty




NASA's NSSDC Master Catalog

Two Line Element Set (TLE):
1 18501U 78019E   19168.74322022  .00000255  00000-0  56576-4 0  9992
2 18501  74.0578  20.8124 0010294 118.7415   1.2574 14.62237352813183
Source of the keplerian elements: AFSPC